Showing default

S-NET D, 43186

Orbit data source: Space-Track

S-NET D, 43186 is a payload satellite owned by TUB (DE) in SSO that was launched on Thu, 01 Feb 2018 UTC via a SOYUZ-2-1A launch vehicle from the Vostochny Cosmodrome (VOSTO). Payload-class satellites include a variety of spacecraft equipped with specific instruments for various scientific and technological missions. These include communications satellites like Starlink; space stations such as the ISS; scientific satellites like the Hubble; Earth observation satellites from companies like Planet Labs, Umbra, and HawkEye 360; GPS; miniature CubeSats for education and research; and military/defense satellites.

Loading next visibility...
Identifier
43186, 2018-014G
Orbit
SSO
Last TLE update
21 hours ago
Origin
Manufacturer
TUB
Mission
Operational Commercial Com/Tech
Bus & Motor
TUBIX10, Unknown motor
Mass
8 kg wet, 8 kg dry
Launch date (UTC)
2018-02-01 (7 years ago)
Launch vehicle
SOYUZ-2-1A
Launch site
Vostochny Cosmodrome (VOSTO)
Object type
Payload
Rocket body
Debris
Shape & HBR
Box, 0.24 m
Radar Cross Section
0.086 m², Medium (>0.1 m² and < 1m²)

Expand to show TLE details & history

TLE from 21 hours ago
0 S-NET D
1 43186U 18014G   25182.20691377  .00004162  00000-0  24600-3 0  9997
2 43186  97.5603  84.8932 0010052 142.3315 217.8621 15.11989590405649
Epoch: 2025-07-01T04:57Z
TLE epoch observation values (Epoch: 2025-07-01T04:57:57.349Z)
Latitude
-0.00004°
Longitude
90.89857°
Altitude
538.694 km
Speed
7.59 km/s
True Right ascension
05h 39m 34s
True Declination
0° 00' 00"
Sunlit
Object was in daylight at epoch
Visualization orbit readout
Latitude
44.33293°
Longitude
-80.81613°
Altitude
529.902 km
Speed
7.606 km/s
Apparent Right ascension
22h 01m 20s
Apparent Declination
7° 55' 25"
Sunlit
Object is in partial shadow
Visualization observer readout
Local Sidereal Time
13:53:38
Azimuth
62.275° ENE
Elevation
-18.256°
Doppler factor
1
Orbital elements
Apogee altitude
534.057 km
Perigee altitude
520.175 km
Semi-major axis
6,905.253 km
Eccentricity
0.00101
Inclination
97.5603°
RAAN
84.8932°
Arg. of periapsis
142.3315°
True anomaly
Unknown
Mean anomaly
217.8621°
Eccentric anomaly
Unknown
Mean motion
3.78245 °/min
Orbital period
95.18 mins
BSTAR
0.000246
Loading maneuver chart data...
Loading SW <> Apogee altitude chart data...
Loading historical data...
Loading historical data...
Loading historical data...
Loading historical data...
Loading historical data...
Loading historical data...
Loading historical data...

S-NET D Visibility forecast

Observer location: undefined°, undefined°

Span
Click to sort rows by Start time (UTC) header in descending order
Start Az.
Max El. time (UTC)
Max El. Az.
Max El.
End time (UTC)
End Az.
5 mins2025-07-02 06:57:35.984Z334.182° NNW2025-07-02 06:59:35.984Z274.479° WNW28.833°2025-07-02 07:02:35.984Z222.624° SW
5 mins2025-07-02 17:38:35.984Z173.493° S2025-07-02 17:40:35.984Z298.269° NW44.346°2025-07-02 17:43:35.984Z345.052° N
|